Regional Weather Roundup
Issued by NWS

Home | Current Version | Previous Version | Text Only | Print | Product List | Glossary Off
Versions: 1 2 3 4 5 6 7 8 9 10 11 12 13 14 15 16 17 18 19 20 21 22 23 24 25 26 27 28 29 30 31 32 33 34 35 36 37 38 39 40 41 42 43 44 45 46 47 48 49 50

000
ASUS45 KTFX 301110
RWRMT
MONTANA REGIONAL WEATHER ROUNDUP
NATIONAL WEATHER SERVICE GREAT FALLS MT
500 AM MDT FRI SEP 30 2016

NOTE: "FAIR" INDICATES FEW OR NO CLOUDS BELOW 12000 FEET WITH NO
SIGNIFICANT WEATHER AND/OR OBSTRUCTIONS TO VISIBILITY.

MTZ001>007-043-301200-
WEST OF THE DIVIDE

CITY           SKY/WX    TMP DP  RH WIND       PRES   REMARKS
KALISPELL      LGT RAIN  50  48  93 CALM      30.01S
MISSOULA       MOCLDY    51  43  74 W5        30.06R
BUTTE          CLEAR     43  41  93 SE3       30.16S
MULLAN PASS    MOCLDY    53  38  56 E7        30.12F
ANACONDA         N/A     54  43  66 S10G17    30.11S
DEER LODGE       N/A     48  43  81 CALM      30.12S
EUREKA           N/A     50  46  87 CALM      30.03F
HAMILTON         N/A     63  43  48 S16       30.04R
LIBBY            N/A     55  54  94 NE6       30.02S
RONAN            N/A     50  46  85 NE1       30.07R
$$

MTZ008-052>055-301200-
SOUTHWEST MONTANA

CITY           SKY/WX    TMP DP  RH WIND       PRES   REMARKS
BOZEMAN        CLEAR     46  42  86 SE7       30.13R
DILLON           N/A     50  42  74 S13       30.16S
W YELLOWSTONE  CLEAR     36  36 100 CALM      30.29R
ENNIS          CLEAR     50  43  76 S8        30.22R
THREE FORKS      N/A     49  38  65 CALM      30.09S
TWIN BRIDGES     N/A     50  40  68 SE3       30.12S
$$

MTZ009-010-012-014-046-048-049-054-301200-
EAST SLOPES AND CENTRAL MONTANA

CITY           SKY/WX    TMP DP  RH WIND       PRES   REMARKS
CUT BANK       CLEAR     41  40  96 W8        30.02R
GREAT FALLS    CLEAR     47  44  90 CALM      30.02S
MALMSTROM AFB  CLEAR     48  45  90 SW3       30.01S
HELENA         CLOUDY    55  43  63 W6        30.07R
AUGUSTA          N/A     46  44  90 N2        30.04S
BOWMANS CRNR     N/A     52  45  77 S12       30.02S
CHOTEAU          N/A     50  46  87 CALM      30.03S FOG
FAIRFIELD        N/A     50  46  86 W2        30.01S
POWER            N/A     43  43 100 S5        30.01S
RAYNESFORD       N/A     49  44  83 NE1       30.05R
$$

MTZ011-013-016-021-045-047-050-051-301200-
NORTH CENTRAL MONTANA

CITY           SKY/WX    TMP DP  RH WIND       PRES   REMARKS
HAVRE          CLEAR     46  46 100 SW7       29.98S
LEWISTOWN      CLEAR     52  45  77 SW9       30.04R
N BAR RANCH      N/A     54  45  71 W8        30.06S
CHINOOK          N/A     46  46 100 W3        29.97R
DENTON           N/A     49  46  86 SE8       29.99R
GEYSER           N/A     46  44  90 N2        30.04S
GRASS RANGE      N/A     56  46  69 W2        29.98R
JUDITH GAP       N/A     51  42  71 MISG      30.06R
ROY              N/A     55  47  77 MISG      29.98R
STANFORD         N/A     55  44  66 W8        30.04S
WINIFRED         N/A     52  47  83 MISG      30.01S
$$

MTZ017>020-022>027-061-062-301200-
NORTHEAST MONTANA

CITY           SKY/WX    TMP DP  RH WIND       PRES   REMARKS
GLASGOW        CLEAR     53  45  74 E8        29.95R
JORDAN           N/A     51  49  92 CALM      29.95F
SIDNEY         CLOUDY    57  49  74 NE3       30.01F
WOLF POINT     CLOUDY    57  46  66 E9        29.97S
PLENTYWOOD       N/A     54  45  71 E13       30.02F
POPLAR           N/A     57  45  62 E10       29.97F
$$

MTZ028>42-056>058-301200-
SOUTHCENTRAL AND SOUTHEAST MONTANA

CITY           SKY/WX    TMP DP  RH WIND       PRES   REMARKS
BAKER          CLOUDY    60  48  64 S14       30.04S
BILLINGS       CLOUDY    63  50  62 SW17      30.02S
LIVINGSTON     CLEAR     61  43  51 W23G30    30.10R
MILES CITY     PTCLDY    57  51  80 S8        29.98R
BIG TIMBER     CLEAR     59  43  55 W17       30.10S
FORSYTH          N/A     61  55  82 CALM      29.97R
HARLOWTON        N/A     55  43  64 SW3       30.06R
LAUREL           N/A     57  48  72 S3        30.03F
$$

REGIONAL REPORTS...DAKOTAS

CITY           SKY/WX    TMP DP  RH WIND       PRES   REMARKS
WILLISTON      LGT RAIN  58  46  64 SE10      30.04S
MINOT          MOCLDY    52  47  83 E13       30.13F
DICKINSON      CLOUDY    55  42  61 SE22      30.05F
BEACH            N/A     55  45  67 SE14      30.05F
CROSBY           N/A     54  45  71 SE6       30.07S
WATFORD CITY   MOCLDY    55  46  71 SE7       30.06S
BISMARCK       CLOUDY    53  46  77 SE14      30.19R
GRAND FORKS    PTCLDY    44  42  93 S5        30.33S
FARGO          CLEAR     51  47  86 SE10      30.33S
BUFFALO SD       N/A     59  44  57 SE10      30.01F
RAPID CITY     CLOUDY    57  43  59 E10       30.11F
$$

REGIONAL REPORTS...WYOMING/IDAHO/WASHINGTON

CITY           SKY/WX    TMP DP  RH WIND       PRES   REMARKS
GILLETTE       CLOUDY    61  50  67 S15       30.08S
SHERIDAN       CLOUDY    51  46  83 CALM      30.06R
BUFFALO WY     CLOUDY    58  42  55 W8        30.11S
CODY           PTCLDY    61  42  49 SW10      30.15S
YELLOWSTONE LA   N/A     34  34 100 CALM      30.35S
IDAHO FALLS    CLEAR     48  45  89 N5        30.19F
SALMON         CLOUDY    45  41  87 CALM      30.16R
BOISE          PTCLDY    65  41  41 S10       30.01R
SPOKANE        CLOUDY    60  46  59 CALM      30.00R
$$

REGIONAL REPORTS...ALBERTA

CITY           SKY/WX    TMP DP  RH WIND       PRES   REMARKS
EDMONTON       CLOUDY    50  39  66 E5        30.06R
CALGARY        MOCLDY    41  39  93 N5        30.00R
LETHBRIDGE     PTCLDY    39  39 100 SW7       30.00S
MEDICINE HAT   CLEAR     45  43  93 VRB2      29.97S
WATERTON GATE    N/A     36  36 100 CALM        N/A
CARDSTON         N/A     39  37  93 SE5         N/A
MILK RIVER       N/A     39  39 100 NW6         N/A
ONEFOUR          N/A     48  45  87 NW5         N/A
$$

REGIONAL REPORTS...SASKATCHEWAN

CITY           SKY/WX    TMP DP  RH WIND       PRES   REMARKS
SWIFT CURRENT  CLEAR     50  46  87 S8        29.96F
REGINA         PTCLDY    48  45  87 SE13      30.03F
SASKATOON      PTCLDY    45  45 100 NE7       30.01S
CYPRESS HILLS    N/A     55  45  67 W1          N/A
VAL MARIE        N/A     52  48  87 NE3         N/A
ROCKGLEN         N/A     50  43  76 S6          N/A
ASSINIBOIA       N/A     48  45  87 E7          N/A
$$



USA.gov is the U.S. government's official web portal to all federal, state and local government web resources and services.